NAVSTAR 81 (USA 319) (48859 NORAD) Tracking and Keplerian Element Data

This shows tracking and keplerian element data for the satellite.

Feedback or suggestion? Click here.




ElementValue
Catalog48859
NameNAVSTAR 81 (USA 319)
Epoch Orbit251
Epoch Day287.36691681
Epoch Year2021
RAAN40.9746
Inclination55.054
Eccentricity0.0003272
Argument of Perigee158.8965
Mean Anonmoly198.1596
Mean Motion2.00558727
Decay Rate-8E-07
L11 48859U 21054A 21287.36691681 -.00000080 00000-0 00000-0 0 9995
L22 48859 55.0540 40.9746 0003272 158.8965 198.1596 2.00558727 2514

Live tracking and technical data element details for NAVSTAR 81 (USA 319) (NORAD 48859). NAVSTAR 81 (USA 319) can be tracked NOW for your location showing map with azimuth and elevation plus other details from your city location.

Track the satellite on the map from your city or location and see movement details for azimuth, elevation, latitude, longitude, range, height, and movement on the map or in text.







IsCatalogInMostPopularTable: catalog: 48859, numindb: 26
Update: records affected: 1



GetName: 48859 NAVSTAR 81 (USA 319)

Hit Count: updated at: Tue, 19 Oct 2021 07:59:52 GMT